Regional Weather Roundup
Issued by NWS Charleston, WV

Home | Current Version | Previous Version | Text Only | Print | Product List | Glossary Off
Versions: 1 2 3 4 5 6 7 8 9 10 11 12 13 14 15 16 17 18 19 20 21 22 23 24 25 26 27 28 29 30 31 32 33 34 35 36 37 38 39 40 41 42 43 44 45 46 47 48 49 50

000
ASUS41 KRLX 030610
RWRRLX
West Virginia Regional Weather Roundup
National Weather Service Charleston WV
200 AM EDT THU SEP 03 2015

Note: "fair" indicates few or no clouds below 12,000 feet with no
significant weather and/or obstructions to visibility.

WVZ003-030700-
Northern Panhandle of West Virginia

CITY           SKY/WX    TMP DP  RH WIND       PRES   REMARKS
WHEELING         N/A     71  65  81 W5        30.01F
$$

WVZ009-030700-
Northwest West Virginia

CITY           SKY/WX    TMP DP  RH WIND       PRES   REMARKS
PARKERSBURG      N/A     69  66  90 CALM      30.04F FOG
$$

WVZ006-030700-
Western West Virginia

CITY           SKY/WX    TMP DP  RH WIND       PRES   REMARKS
HUNTINGTON       N/A     68  68 100 CALM      30.02F FOG
$$

WVZ015-030700-
West Central West Virginia

CITY           SKY/WX    TMP DP  RH WIND       PRES   REMARKS
CHARLESTON       N/A     69  67  93 CALM      30.03F
$$

WVZ022-031-030700-
North Central West Virginia

CITY           SKY/WX    TMP DP  RH WIND       PRES   REMARKS
CLARKSBURG       N/A     65  64  97 CALM      30.04F FOG
MORGANTOWN       N/A     70  63  78 CALM      30.04F
$$

WVZ025-035-042-045-030700-
Southern West Virginia

CITY           SKY/WX    TMP DP  RH WIND       PRES   REMARKS
BECKLEY          N/A     64  61  90 CALM      30.11F
LOGAN            N/A     68  66  94 CALM      30.07S
BLUEFIELD        N/A     68  61  78 W3        30.14F
LEWISBURG        N/A     65  63  91 CALM      30.10F FOG
$$

WVZ047-030700-
Northern Mountains of West Virginia

CITY           SKY/WX    TMP DP  RH WIND       PRES   REMARKS
ELKINS         MOCLDY    61  60  97 CALM      30.10F
$$

WVZ052-030700-
Eastern Panhandle of West Virginia

CITY           SKY/WX    TMP DP  RH WIND       PRES   REMARKS
MARTINSBURG      N/A     66  65  96 CALM      29.97F FOG
PETERSBURG     FOG       64  64 100 CALM      30.02F VSB 1/4
$$


USA.gov is the U.S. government's official web portal to all federal, state and local government web resources and services.